User: anonymous
Location: Caltech
(34.1382°N, 118.1253°W)
Time: 02:48:00
(UTC-07:00)
Language:

SPOT 1/Viking Rocket - Orbit

View from above orbital plane
View from above orbital plane
View from above satellite
View from above satellite

Ground track
Ground track

The orbit data is extracted from the following two-line orbital elements,

1 16615U 86019C   14211.76136630  .00000084  00000-0  48843-4 0  4475
2 16615 098.7550 263.2244 0010900 254.5012 240.3079 14.31284799488921
Epoch (UTC): 30 July 2014 18:16:22
Eccentricity: 0.0010900
inclination: 98.7550°
perigee height: 779 km
apogee height: 795 km
right ascension of ascending node: 263.2244°
argument of perigee: 254.5012°
revolutions per day: 14.31284799
mean anomaly at epoch: 240.3079°
orbit number at epoch: 48892

The dashed part of the orbit path shows where the satellite is in the earth's shadow,  

DLR